{"data":{"norad_id":54194,"intl_designator":"2022-141AP","name":"STARLINK-5271","alt_names":[],"object_type":"PAYLOAD","status":"ACTIVE","operator":null,"country":"US","launch_date":"2022-10-28","launch_site_code":"AFWTR","launch_vehicle":null,"mission":null,"orbit_class":"UNKNOWN","rcs_meters":null,"size_class":null,"mass_kg":null,"dimensions":null,"purposes":["comms"],"wikipedia_slug":null,"has_3d_model":false,"image_url":null,"decayed_at":null,"tle_current":{"epoch":"2026-09-20T04:18:04.419648Z","epoch_age_seconds":118242,"freshness":"FRESH","line1":"1 54194U 22141AP  26263.17921782  .00001540  00000+0  56726-4 0  9998","line2":"2 54194  53.1612 190.9331 0001284  85.6778 274.4371 15.34379583215492","mean_motion":15.34379583,"eccentricity":0.0001284,"inclination_deg":53.1612,"raan_deg":190.9331,"arg_perigee_deg":85.6778,"mean_anomaly_deg":274.4371,"bstar":5.6726e-5,"rev_number":21549,"period_min":93.849006852954,"perigee_km":461.88555282798,"apogee_km":463.6422961854,"semimajor_km":6840.9009245067,"source":"CELESTRAK","updated_at":"2026-09-21T09:00:33.115232Z"}}}